| time (UTC) | temp F | wind direction | speed MPH | gust MPH | rain 1hr in | rain 24hr in | rain mn in | humidity % | barometer mb |
| 20260504203016 | 72 | 282 | 2.0 | 11.0 | 0.00 | 0.00 | 0.00 | 48 | 1006.0 |
| 20260504201526 | 74 | 310 | 4.0 | 9.0 | 0.00 | 0.00 | 0.00 | 47 | 1005.9 |
| 20260504200024 | 73 | 315 | 2.0 | 13.0 | 0.00 | 0.00 | 0.00 | 48 | 1005.9 |
| 20260504194514 | 73 | 271 | 3.0 | 11.0 | 0.00 | 0.00 | 0.00 | 48 | 1006.0 |
| 20260504193012 | 73 | 268 | 2.0 | 9.0 | 0.00 | 0.00 | 0.00 | 47 | 1006.2 |
| 20260504191520 | 73 | 269 | 3.0 | 9.0 | 0.00 | 0.00 | 0.00 | 47 | 1006.5 |
| 20260504190024 | 73 | 233 | 4.0 | 13.0 | 0.00 | 0.00 | 0.00 | 48 | 1006.6 |
| 20260504184523 | 73 | 276 | 3.0 | 8.0 | 0.00 | 0.00 | 0.00 | 47 | 1006.7 |
| 20260504183019 | 72 | 276 | 2.0 | 7.0 | 0.00 | 0.00 | 0.00 | 47 | 1006.8 |
| 20260504181516 | 71 | 330 | 2.0 | 11.0 | 0.00 | 0.00 | 0.00 | 51 | 1006.8 |
| 20260504180020 | 71 | 274 | 2.0 | 10.0 | 0.00 | 0.00 | 0.00 | 51 | 1007.0 |
| 20260504174522 | 69 | 70 | 4.0 | 13.0 | 0.00 | 0.00 | 0.00 | 51 | 1007.3 |
| 20260504173034 | 70 | 256 | 4.0 | 9.0 | 0.00 | 0.00 | 0.00 | 50 | 1007.3 |
| 20260504171518 | 70 | 265 | 3.0 | 11.0 | 0.00 | 0.00 | 0.00 | 48 | 1007.5 |
| 20260504081524 | 49 | 269 | 1.0 | 5.0 | 0.00 | 0.00 | 0.00 | 61 | 1009.9 |
| 20260504050022 | 49 | 281 | 0.0 | 2.0 | 0.00 | 0.00 | 0.00 | 62 | 1012.1 |
| 20260504044536 | 49 | 250 | 0.0 | 2.0 | 0.00 | 0.00 | 0.00 | 63 | 1012.1 |
| 20260504043033 | 49 | 238 | 0.0 | 3.0 | 0.00 | 0.00 | 0.00 | 62 | 1012.2 |
| 20260504041514 | 49 | 252 | 0.0 | 1.0 | 0.00 | 0.00 | 0.00 | 63 | 1012.3 |
| 20260504040017 | 49 | 238 | 0.0 | 2.0 | 0.00 | 0.00 | 0.00 | 62 | 1012.4 |
| 20260504034533 | 50 | 236 | 0.0 | 1.0 | 0.00 | 0.00 | 0.00 | 60 | 1012.6 |
| 20260504033036 | 51 | 272 | 0.0 | 2.0 | 0.00 | 0.00 | 0.00 | 59 | 1012.7 |
| 20260504031532 | 51 | 287 | 0.0 | 2.0 | 0.00 | 0.00 | 0.00 | 58 | 1012.7 |
| 20260504030016 | 51 | 274 | 0.0 | 2.0 | 0.00 | 0.00 | 0.00 | 58 | 1012.8 |
| 20260504024523 | 51 | 250 | 0.0 | 1.0 | 0.00 | 0.00 | 0.00 | 57 | 1012.9 |
| 20260504023025 | 52 | 277 | 0.0 | 2.0 | 0.00 | 0.00 | 0.00 | 56 | 1013.0 |
| 20260504021533 | 52 | 305 | 0.0 | 2.0 | 0.00 | 0.00 | 0.00 | 55 | 1013.1 |
| 20260504020028 | 52 | 266 | 2.0 | 5.0 | 0.00 | 0.00 | 0.00 | 54 | 1013.2 |
| 20260504014505 | 52 | 253 | 1.0 | 5.0 | 0.00 | 0.00 | 0.00 | 53 | 1013.3 |
| 20260504013008 | 53 | 238 | 1.0 | 7.0 | 0.00 | 0.00 | 0.00 | 51 | 1013.1 |
| 20260504011504 | 54 | 335 | 1.0 | 4.0 | 0.00 | 0.00 | 0.00 | 48 | 1013.0 |
| 20260504010008 | 54 | 258 | 3.0 | 8.0 | 0.00 | 0.00 | 0.00 | 45 | 1012.7 |
| 20260504004510 | 54 | 261 | 0.0 | 4.0 | 0.00 | 0.00 | 0.00 | 45 | 1012.4 |
| 20260504003004 | 55 | 96 | 0.0 | 3.0 | 0.00 | 0.00 | 0.00 | 44 | 1012.4 |
| 20260504001504 | 55 | 273 | 1.0 | 4.0 | 0.00 | 0.00 | 0.00 | 43 | 1012.5 |
| 20260504000007 | 56 | 240 | 0.0 | 9.0 | 0.00 | 0.00 | 0.00 | 42 | 1012.5 |
| 20260503234505 | 56 | 282 | 2.0 | 7.0 | 0.00 | 0.00 | 0.00 | 41 | 1012.6 |
| 20260503233007 | 57 | 274 | 1.0 | 5.0 | 0.00 | 0.00 | 0.00 | 42 | 1012.7 |
| 20260503231504 | 57 | 253 | 1.0 | 5.0 | 0.00 | 0.00 | 0.00 | 39 | 1012.8 |
| 20260503230006 | 58 | 248 | 4.0 | 10.0 | 0.00 | 0.00 | 0.00 | 40 | 1012.9 |
| 20260503224507 | 58 | 276 | 2.0 | 5.0 | 0.00 | 0.00 | 0.00 | 39 | 1012.9 |
| 20260503223004 | 58 | 167 | 2.0 | 10.0 | 0.00 | 0.00 | 0.00 | 38 | 1013.1 |
| 20260503221506 | 59 | 266 | 2.0 | 6.0 | 0.00 | 0.00 | 0.00 | 37 | 1013.2 |
| 20260503220007 | 59 | 1 | 2.0 | 8.0 | 0.00 | 0.00 | 0.00 | 36 | 1013.2 |
| 20260503214503 | 60 | 282 | 1.0 | 10.0 | 0.00 | 0.00 | 0.00 | 39 | 1013.2 |
| 20260503213018 | 60 | 239 | 2.0 | 12.0 | 0.00 | 0.00 | 0.00 | 37 | 1013.2 |
| 20260503211514 | 60 | 156 | 2.0 | 9.0 | 0.00 | 0.00 | 0.00 | 35 | 1013.3 |
| 20260503210009 | 60 | 292 | 2.0 | 8.0 | 0.00 | 0.00 | 0.00 | 38 | 1013.1 |